Home > Weather > Rankin Inlet > Past weeks

Flag for Canada Past Weather in Rankin Inlet, Nunavut, Canada — Yesterday and Last 2 Weeks

Now
61 °F

Passing clouds.


Feels Like: 61 °F
Forecast: N/A
Wind: 13 mph from North

Location: Rankin Inlet

Current Time: Aug 24, 2016 at 4:51:17 PM

Latest Report: Aug 24, 2016 at 4:00 PM


Visibility: 15 mi

Pressure: 29.86 "Hg

Humidity: 55%

Dew Point: 45 °F

Location of Rankin InletLocation

Past Weather in Rankin Inlet — Graph

°F

Rankin Inlet Temperature Yesterday

Maximum temperature yesterday: 63 °F (at 2:00 PM)
Minimum temperature yesterday: 50 °F (at 3:00 AM)
Average temperature yesterday: 55 °F

High & Low Weather Summary for the Past Weeks

 TemperatureHumidityPressure
High68 °F (Aug 11, 4:00 PM)100% (Aug 15, 3:00 AM)30.02 "Hg (Aug 15, 3:00 AM)
Low43 °F (Aug 17, 5:00 AM)35% (Aug 11, 5:00 PM)29.58 "Hg (Aug 21, 4:00 AM)
Average52 °F81%29.82 "Hg
* Reported Aug 9 3:00 PM — Aug 24 3:00 PM, Rankin Inlet, Weather by CustomWeather, © 2016

Note: Actual official high and low records may vary slightly from our data, if they occured in-between our weather recording intervals... More about our weather records

Advertising

Rankin Inlet Weather History for the Previous 24 Hours

Scroll right to see more
 ConditionsComfort  
Time TempWeatherWind HumidityBarometerVisibility
3:00 PM
Wed, Aug 24
59 °FPassing clouds.13 mph55%29.86 "Hg15 mi
2:00 PM59 °FPassing clouds.14 mph55%29.87 "Hg15 mi
1:00 PM57 °FScattered clouds.13 mph59%29.88 "Hg15 mi
12:00 PM55 °FScattered clouds.16 mph63%29.88 "Hg15 mi
11:00 AM54 °FPassing clouds.15 mph67%29.89 "Hg15 mi
10:00 AM52 °FPassing clouds.12 mph77%29.90 "Hg15 mi
9:00 AM50 °FPassing clouds.14 mph82%29.91 "Hg15 mi
8:00 AM48 °FPassing clouds.12 mph87%29.90 "Hg15 mi
7:00 AM46 °FSunny.13 mph93%29.89 "Hg15 mi
6:00 AM45 °FClear.16 mph93%29.89 "Hg15 mi
5:00 AM45 °FClear.14 mph93%29.90 "Hg15 mi
4:00 AM46 °FPassing clouds.13 mph93%29.90 "Hg15 mi
3:00 AM48 °FPassing clouds.16 mph87%29.89 "Hg15 mi
2:00 AM50 °FPassing clouds.18 mph82%29.90 "Hg15 mi
1:00 AM50 °FPassing clouds.18 mph88%29.89 "Hg15 mi
12:00 AM52 °FPassing clouds.20 mph82%29.88 "Hg15 mi
11:00 PM
Tue, Aug 23
52 °FPassing clouds.18 mph82%29.88 "Hg15 mi
10:00 PM54 °FPassing clouds.18 mph77%29.86 "Hg15 mi
9:00 PM54 °FPassing clouds.16 mph72%29.86 "Hg15 mi
8:00 PM59 °FPassing clouds.17 mph63%29.85 "Hg15 mi
7:00 PM61 °FPassing clouds.20 mph55%29.84 "Hg15 mi
6:00 PM63 °FPassing clouds.24 mph52%29.83 "Hg15 mi
5:00 PM63 °FPassing clouds.29 mph52%29.80 "Hg15 mi
4:00 PM63 °FPassing clouds.28 mph52%29.79 "Hg15 mi
Weather by CustomWeather, © 2016

See weather overviewHow to use our weather pages